This demonstration page uses our WeatherBlox Daily Observations layout. Learn more.

Left ArrowRight Arrow

Hourly Observations for November 19, 2016

Temp ( °F °C ) Dew Point ( °F °C ) Humidity (%) Winds ( mph kmh ) Pressure ( in mb ) Visibility ( mi km ) Precip ( " mm )
12:15 am 00:15 Clear 24 -4.6 18 -8 77 77 W 9 15 30.62 1037 10 16 N/A
12:35 am 00:35 Clear 22 -5.3 17 -8.5 78 78 W 8 13 30.65 1038 10 16 N/A
12:55 am 00:55 Clear 22 -5.3 17 -8.2 80 80 W 7 11 30.65 1038 10 16 N/A
1:15 am 01:15 Clear 21 -6.1 17 -8.6 83 83 W 7 11 30.65 1038 10 16 N/A
1:35 am 01:35 Clear 21 -5.9 17 -8.5 82 82 W 6 9 30.65 1038 10 16 N/A
1:55 am 01:55 Clear 21 -6.2 16 -8.8 82 82 W 5 7 30.65 1038 10 16 N/A
2:15 am 02:15 Clear 21 -6.3 16 -9.1 81 81 W 7 11 30.65 1038 10 16 N/A
2:35 am 02:35 Clear 21 -6.2 16 -9 81 81 W 7 11 30.65 1038 10 16 N/A
2:55 am 02:55 Clear 20 -6.5 15 -9.4 80 80 W 7 11 30.65 1038 10 16 N/A
3:15 am 03:15 Clear 20 -6.7 15 -9.5 81 81 W 6 9 30.65 1038 10 16 N/A
3:35 am 03:35 Clear 20 -6.5 15 -9.2 81 81 WNW 5 7 30.65 1038 10 16 N/A
3:55 am 03:55 Clear 20 -6.9 15 -9.6 81 81 W 6 9 30.65 1038 10 16 N/A
4:15 am 04:15 Clear 20 -6.9 15 -9.4 83 83 W 6 9 30.65 1038 10 16 N/A
4:35 am 04:35 Clear 20 -6.5 15 -9.4 80 80 W 5 7 30.65 1038 10 16 N/A
4:55 am 04:55 Clear 19 -7.2 14 -9.8 82 82 WNW 5 7 30.65 1038 10 16 N/A
5:15 am 05:15 Clear 19 -7.4 14 -10 82 82 WNW 5 7 30.65 1038 10 16 N/A
5:35 am 05:35 Clear 18 -7.6 14 -10 83 83 WNW 5 7 30.65 1038 10 16 N/A
5:55 am 05:55 Clear 19 -7.5 14 -9.9 83 83 WNW 6 9 30.65 1038 10 16 N/A
6:15 am 06:15 Clear 18 -7.9 14 -10 85 85 WNW 5 7 30.65 1038 10 16 N/A
6:35 am 06:35 Clear 17 -8.1 13 -10.3 84 84 W 6 9 30.65 1038 10 16 N/A
6:55 am 06:55 Clear 19 -7.1 15 -9.5 83 83 W 6 9 30.65 1038 10 16 N/A
7:15 am 07:15 Clear 19 -7 15 -9.2 85 85 W 6 9 30.68 1039 10 16 N/A
7:35 am 07:35 Sunny 20 -6.6 16 -8.9 84 84 W 5 7 30.68 1039 10 16 N/A
7:55 am 07:55 Sunny 21 -6 17 -8.3 84 84 W 5 7 30.68 1039 10 16 N/A
8:15 am 08:15 Sunny 23 -5.2 19 -7.4 85 85 WSW 5 7 30.68 1039 10 16 N/A
8:35 am 08:35 Sunny 25 -4 20 -6.6 82 82 N N/A 30.65 1038 10 16 N/A
8:55 am 08:55 Sunny 26 -3.1 21 -6.3 79 79 N N/A 30.65 1038 10 16 N/A
9:15 am 09:15 Sunny 28 -2 22 -5.5 77 77 N N/A 30.62 1037 10 16 N/A
9:35 am 09:35 Sunny 31 -0.6 23 -4.8 74 74 N N/A 30.62 1037 10 16 N/A
9:55 am 09:55 Sunny 31 -0.6 23 -4.8 74 74 SW 7 11 30.62 1037 10 16 N/A
10:15 am 10:15 Sunny 32 0.1 24 -4.7 70 70 WSW 6 9 30.62 1037 10 16 N/A
10:35 am 10:35 Sunny 33 0.7 24 -4.4 69 69 SW 8 13 30.62 1037 10 16 N/A
10:55 am 10:55 Sunny 35 1.8 24 -4.6 63 63 SW 7 11 30.59 1036 10 16 N/A
11:15 am 11:15 Sunny 37 2.6 22 -5.5 56 56 SW 12 19 30.59 1036 10 16 N/A
11:35 am 11:35 Sunny 38 3.2 22 -5.6 53 53 SSW 8 13 30.59 1036 10 16 N/A
11:55 am 11:55 Sunny 39 3.7 21 -6 50 50 SSW 8 13 30.56 1035 10 16 N/A
12:15 pm 12:15 Sunny 39 3.8 19 -7.3 45 45 S 10 17 30.56 1035 10 16 N/A
12:35 pm 12:35 Sunny 39 4 18 -7.8 42 42 S 7 11 30.53 1034 10 16 N/A
12:55 pm 12:55 Sunny 40 4.3 19 -7.4 43 43 S 9 15 30.50 1033 10 16 N/A
1:15 pm 13:15 Sunny 41 4.9 19 -7.1 42 42 S 12 19 30.50 1033 10 16 N/A
1:35 pm 13:35 Sunny 41 5 19 -7.1 42 42 S 12 19 30.50 1033 10 16 N/A
1:55 pm 13:55 Sunny 41 5.1 20 -6.8 42 42 SSE 9 15 30.48 1032 10 16 N/A
2:15 pm 14:15 Sunny 41 5.1 20 -6.7 43 43 SSE 10 17 30.48 1032 10 16 N/A
2:35 pm 14:35 Sunny 42 5.4 20 -6.9 41 41 S 10 17 30.48 1032 10 16 N/A
2:55 pm 14:55 Sunny 42 5.6 19 -7.2 40 40 SSE 9 15 30.45 1031 10 16 N/A
3:15 pm 15:15 Sunny 42 5.5 19 -7.1 40 40 SSE 13 20 30.45 1031 10 16 N/A
3:35 pm 15:35 Sunny 42 5.6 20 -6.6 41 41 SSE 13 20 30.45 1031 10 16 N/A
3:55 pm 15:55 Sunny 42 5.5 20 -6.4 42 42 SSE 10 17 30.45 1031 10 16 N/A
4:15 pm 16:15 Sunny 42 5.3 20 -6.4 43 43 SSE 13 20 30.42 1030 10 16 N/A
4:35 pm 16:35 Sunny 41 4.9 20 -6.5 44 44 SSE 12 19 30.42 1030 10 16 N/A
4:55 pm 16:55 Sunny 39 3.8 22 -5.7 50 50 SSE 7 11 30.42 1030 10 16 N/A
5:15 pm 17:15 Sunny 36 2.2 22 -5.6 57 57 SSE 7 11 30.45 1031 10 16 N/A
5:35 pm 17:35 Clear 34 1.1 22 -5.7 61 61 SSE 8 13 30.45 1031 10 16 N/A
5:55 pm 17:55 Clear 33 0.6 22 -5.5 64 64 SSE 8 13 30.42 1030 10 16 N/A
6:15 pm 18:15 Clear 33 0.5 22 -5.5 64 64 SSE 9 15 30.42 1030 10 16 N/A
6:35 pm 18:35 Clear 32 0.2 22 -5.6 65 65 SSE 8 13 30.42 1030 10 16 N/A
6:55 pm 18:55 Clear 32 undefined 21 -5.9 65 65 SE 9 15 30.42 1030 10 16 N/A
7:15 pm 19:15 Clear 32 -0.2 21 -6 65 65 SE 9 15 30.42 1030 10 16 N/A
7:35 pm 19:35 Clear 31 -0.4 21 -6 66 66 SE 10 17 30.39 1029 10 16 N/A
7:55 pm 19:55 Clear 31 -0.4 21 -6.1 66 66 SE 10 17 30.39 1029 10 16 N/A
8:15 pm 20:15 Clear 31 -0.7 21 -6.1 67 67 SE 9 15 30.39 1029 10 16 N/A
8:35 pm 20:35 Clear 30 -1 21 -6.2 68 68 SE 9 15 30.42 1030 10 16 N/A
8:55 pm 20:55 Clear 31 -0.8 21 -6 68 68 SE 9 15 30.39 1029 10 16 N/A
9:15 pm 21:15 Clear 30 -1 21 -6 69 69 SE 10 17 30.42 1030 10 16 N/A
9:35 pm 21:35 Clear 29 -1.4 21 -6 71 71 SE 9 15 30.42 1030 10 16 N/A
9:55 pm 21:55 Clear 28 -2 21 -6.1 74 74 SE 9 15 30.42 1030 10 16 N/A
10:15 pm 22:15 Clear 28 -2.3 21 -6.1 75 75 SE 8 13 30.39 1029 10 16 N/A
10:35 pm 22:35 Clear 27 -2.6 21 -6.1 77 77 SSE 8 13 30.39 1029 10 16 N/A
10:55 pm 22:55 Clear 27 -3 21 -6.3 78 78 SE 7 11 30.39 1029 10 16 N/A
11:15 pm 23:15 Clear 26 -3.3 21 -6.3 80 80 SE 9 15 30.39 1029 10 16 N/A
11:35 pm 23:35 Clear 26 -3.5 20 -6.4 81 81 SE 8 13 30.36 1028 10 16 N/A
11:55 pm 23:55 Clear 26 -3.3 21 -6.2 81 81 SE 9 15 30.36 1028 10 16 N/A

Powered by AerisWeather